User: anonymous   Login
Location: Bridgewater
(44.3670°N, 64.5170°W)
Time: 11:03:47
(UTC-03:00)
Language:

OPAL - Orbit

View from above orbital plane
View from above orbital plane
View from above satellite
View from above satellite

Ground track
Ground track

The orbit data is extracted from the following two-line orbital elements,

1 26063U 00004C   17085.90063038 +.00000002 +00000-0 +20626-4 0  9993
2 26063 100.2259 074.1793 0036465 179.3665 180.7568 14.36656747899369
Epoch (UTC): 26 March 2017 21:36:54
Eccentricity: 0.0036465
inclination: 100.2259°
perigee height: 743 km
apogee height: 795 km
right ascension of ascending node: 74.1793°
argument of perigee: 179.3665°
revolutions per day: 14.36656747
mean anomaly at epoch: 180.7568°
orbit number at epoch: 89936

The dashed part of the orbit path shows where the satellite is in the earth's shadow,  

DLR